FW4151 Weather Reports


time (UTC)temp
C
wind
direction
speed
KPH
gust
KPH
rain 1hr
cm
rain 24hr
cm
rain mn
cm
humidity
%
barometer
mb
20260509130042 -17 0.0 0.0 0.00 0.13 0.13 1009.6
20260509124544 -17 0.0 0.0 0.00 0.13 0.13 1009.6
20260509123035 -17 0.0 0.0 0.00 0.13 0.13 1009.8
20260509121534 -17 0.0 0.0 0.00 0.13 0.13 1009.7
20260509120034 -17 0.0 0.0 0.00 0.13 0.13 1009.9
20260509114532 -17 0.0 0.0 0.00 0.13 0.13 1010.0
20260509113036 -17 0.0 0.0 0.00 0.13 0.13 1009.8
20260509111533 -17 0.0 0.0 0.00 0.13 0.13 1009.9
20260509110032 -17 0.0 0.0 0.00 0.13 0.13 1009.8
20260509104530 -17 0.0 0.0 0.00 0.13 0.13 1009.7
20260509103030 -17 0.0 0.0 0.00 0.13 0.13 1009.8
20260509101545 -17 0.0 0.0 0.00 0.13 0.13 1009.8
20260509100032 -17 0.0 0.0 0.00 0.13 0.13 1009.6
20260509094528 -17 0.0 0.0 0.00 0.13 0.13 1009.8
20260509093026 -17 0.0 0.0 0.00 0.13 0.13 1009.7
20260509091523 7 0.0 0.0 0.03 0.13 0.13 93 1009.7
20260509090033 7 0.0 0.0 0.03 0.13 0.13 93 1009.9
20260509084520 7 0.0 0.0 0.03 0.13 0.13 93 1009.9
20260509083031 7 0.0 0.0 0.03 0.13 0.13 93 1010.0
20260509081518 7 0.0 0.0 0.00 0.10 0.10 93 1010.2
20260509080020 7 0.0 0.0 0.03 0.10 0.10 93 1010.5
20260509074516 7 0.0 0.0 0.03 0.10 0.10 93 1010.5
20260509073023 7 0.0 0.0 0.03 0.10 0.10 92 1010.5
20260509071515 7 0.0 0.0 0.05 0.10 0.10 92 1010.5
20260509070013 7 0.0 0.0 0.05 0.08 0.08 92 1010.5
20260509064512 7 0.0 0.0 0.08 0.08 0.08 91 1010.4
20260509063019 7 0.0 0.0 0.08 0.08 0.08 91 1010.8
20260509061508 7 0.0 0.0 0.05 0.05 0.05 91 1010.9
20260509060007 7 0.0 0.0 0.03 0.03 0.03 91 1011.0
20260509054505 7 0.0 0.0 0.00 0.00 0.00 90 1011.2
20260509053003 7 0.0 0.0 0.00 0.00 0.00 89 1011.2
20260509051502 6 0.0 0.0 0.00 0.00 0.00 88 1011.1
20260509050100 6 0.0 0.0 0.00 0.00 0.00 87 1011.0
20260509044653 6 0.0 0.0 0.00 0.00 0.00 86 1011.1
20260509043138 6 0.0 0.0 0.00 0.00 0.00 86 1011.2
20260509041554 6 0.0 0.0 0.00 0.00 0.00 85 1011.4
20260509040052 6 0.0 0.0 0.00 0.00 0.00 85 1011.5
20260509034552 6 0.0 0.0 0.00 0.00 0.00 84 1011.5
20260509033051 6 0.0 0.0 0.00 0.00 0.00 84 1011.4
20260509031558 6 0.0 0.0 0.00 0.00 0.00 82 1011.3
20260509030108 6 0.0 0.0 0.00 0.00 0.00 80 1011.4
20260509024547 6 0.0 0.0 0.00 0.00 0.00 78 1011.6
20260509023047 6 0.0 0.0 0.00 0.00 0.00 78 1011.5
20260509021547 6 0.0 0.0 0.00 0.00 0.00 77 1011.5
20260509020050 6 0.0 0.0 0.00 0.00 0.00 76 1011.7
20260509014545 7 0.0 0.0 0.00 0.00 0.00 73 1011.6
20260509013045 7 0.0 0.0 0.00 0.00 0.00 72 1011.5
20260509011545 7 0.0 0.0 0.00 0.00 0.00 68 1011.2
20260509010044 7 0.0 0.0 0.00 0.00 0.00 67 1011.2
20260509004553 8 0.0 0.0 0.00 0.00 0.00 60 1010.9
20260509003051 8 0.0 0.0 0.00 0.00 0.00 62 1010.8
20260509001543 8 0.0 0.0 0.00 0.00 0.00 61 1010.7
20260509000042 9 0.0 0.0 0.00 0.00 0.00 59 1010.6
20260508234542 10 0.0 0.0 0.00 0.00 0.00 55 1010.4
20260508233042 10 0.0 0.0 0.00 0.00 0.00 53 1010.2
20260508231540 11 0.0 0.0 0.00 0.00 0.00 55 1010.0
20260508230040 11 0.0 0.0 0.00 0.00 0.00 51 1010.1
20260508224549 11 0.0 0.0 0.00 0.00 0.00 48 1010.1
20260508223047 12 0.0 0.0 0.00 0.00 0.00 48 1010.1
20260508221537 12 0.0 0.0 0.00 0.00 0.00 47 1010.1
20260508220044 12 0.0 0.0 0.00 0.00 0.00 48 1010.0
20260508214632 11 0.0 0.0 0.00 0.00 0.00 49 1010.1
20260508213032 11 0.0 0.0 0.00 0.00 0.00 50 1010.3
20260508211533 11 0.0 0.0 0.00 0.00 0.00 47 1010.3
20260508210032 11 0.0 0.0 0.00 0.00 0.00 46 1010.3
20260508204533 11 0.0 0.0 0.00 0.00 0.00 49 1010.3
20260508203030 11 0.0 0.0 0.00 0.00 0.00 48 1010.4
20260508201531 11 0.0 0.0 0.00 0.00 0.00 50 1010.6
20260508200032 11 0.0 0.0 0.00 0.00 0.00 48 1010.7
20260508194534 11 0.0 0.0 0.00 0.00 0.00 51 1011.0
20260508193023 11 0.0 0.0 0.00 0.00 0.00 52 1011.0
20260508191532 10 0.0 0.0 0.00 0.00 0.00 53 1011.3
20260508190022 10 0.0 0.0 0.00 0.00 0.00 56 1011.4
20260508184521 10 0.0 0.0 0.00 0.00 0.00 58 1011.5
20260508183025 9 0.0 0.0 0.00 0.00 0.00 58 1011.8
20260508181515 8 0.0 0.0 0.00 0.00 0.00 60 1011.9
20260508180009 8 0.0 0.0 0.00 0.00 0.00 67 1011.9
20260508174508 8 0.0 0.0 0.00 0.00 0.00 69 1011.9
20260508173006 8 0.0 0.0 0.00 0.00 0.00 68 1011.9
20260508171508 7 0.0 0.0 0.00 0.00 0.00 71 1011.9
20260508170100 7 0.0 0.0 0.00 0.00 0.00 77 1012.0
20260508164558 6 0.0 0.0 0.00 0.00 0.00 77 1012.1
20260508163056 6 0.0 0.0 0.00 0.00 0.00 77 1012.2
20260508161559 6 0.0 0.0 0.00 0.00 0.00 73 1012.1
20260508160054 6 0.0 0.0 0.00 0.00 0.00 73 1011.8
20260508154608 6 0.0 0.0 0.00 0.00 0.00 76 1011.8
20260508153048 5 0.0 0.0 0.00 0.00 0.00 78 1011.5
20260508151550 5 0.0 0.0 0.00 0.00 0.00 79 1011.6
20260508150057 5 0.0 0.0 0.00 0.00 0.00 83 1011.9
20260508144546 4 0.0 0.0 0.00 0.00 0.00 86 1011.9
20260508143147 4 0.0 0.0 0.00 0.00 0.00 84 1011.9
20260508141544 5 0.0 0.0 0.00 0.00 0.00 82 1012.0
20260508140050 5 0.0 0.0 0.00 0.00 0.00 83 1011.8
20260508134542 5 0.0 0.0 0.00 0.00 0.00 80 1011.9
20260508133041 5 0.0 0.0 0.00 0.00 0.00 80 1011.2
20260508131540 5 0.0 0.0 0.00 0.00 0.00 80 1011.0